This demonstration page uses our WeatherBlox Daily Observations layout. Learn more.

Left ArrowRight Arrow

36.17497, -115.13722

Hourly Observations for December 2, 2018

Temp ( °F °C ) Dew Point ( °F °C ) Humidity (%) Winds ( mph kmh ) Pressure ( in mb ) Visibility ( mi km ) Precip ( " mm )
12:53 am 00:53 Partly Cloudy 47 8.3 31 -0.6 54 54 NNW 18 30 29.83 1010 10 16.0934 0 0
1:53 am 01:53 Clear 47 8.3 26 -3.3 44 44 NNW 15 24 29.83 1010 10 16.0934 0 0
2:53 am 02:53 Clear 45 7.2 29 -1.7 54 54 N 16 26 29.85 1011 10 16.0934 0 0
3:53 am 03:53 Clear 45 7.2 26 -3.3 48 48 NNW 21 33 29.86 1011 10 16.0934 0 0
4:53 am 04:53 Clear 43 6.1 25 -3.9 49 49 NNW 17 28 29.89 1012 10 16.0934 0 0
5:53 am 05:53 Clear 43 6.1 24 -4.4 47 47 NW 20 31 29.91 1013 10 16.0934 0 0
6:53 am 06:53 Sunny 43 6.1 25 -3.9 49 49 NNW 15 24 29.96 1015 10 16.0934 0 0
7:53 am 07:53 Sunny 45 7.2 24 -4.4 44 44 N 13 20 30 1016 10 16.0934 0 0
8:53 am 08:53 Sunny 49 9.4 21 -6.1 33 33 NNW 15 24 30.01 1016 10 16.0934 0 0
9:53 am 09:53 Sunny 51 10.6 18 -7.8 27 27 N 15 24 30.04 1017 10 16.0934 0 0
10:53 am 10:53 Sunny 53 11.7 16 -8.9 23 23 NW 22 35 30.02 1017 10 16.0934 0 0
11:53 am 11:53 Sunny 54 12.2 13 -10.6 19 19 NNW 20 31 30.02 1017 10 16.0934 0 0
12:53 pm 12:53 Sunny 55 12.8 11 -11.7 17 17 N 15 24 30.01 1016 10 16.0934 0 0
1:53 pm 13:53 Sunny 55 12.8 11 -11.7 17 17 NNW 15 24 30.02 1017 10 16.0934 0 0
2:53 pm 14:53 Sunny 54 12.2 11 -11.7 18 18 N 14 22 30.03 1017 10 16.0934 0 0
3:53 pm 15:53 Sunny 53 11.7 10 -12.2 18 18 NNW 13 20 30.05 1018 10 16.0934 0 0
4:53 pm 16:53 Clear 51 10.6 12 -11.1 21 21 N 9 15 30.08 1019 10 16.0934 0 0
5:53 pm 17:53 Clear 49 9.4 14 -10 25 25 ENE 3 6 30.11 1020 10 16.0934 0 0
6:53 pm 18:53 Clear 46 7.8 16 -8.9 30 30 Calm 30.14 1021 10 16.0934 0 0
7:53 pm 19:53 Clear 46 7.8 17 -8.3 31 31 E 6 9 30.15 1021 10 16.0934 0 0
8:53 pm 20:53 Clear 43 6.1 18 -7.8 37 37 Calm 30.18 1022 10 16.0934 0 0
9:53 pm 21:53 Clear 39 3.9 18 -7.8 43 43 NNW 5 7 30.2 1023 10 16.0934 0 0
10:53 pm 22:53 Clear 38 3.3 20 -6.7 48 48 NNW 7 11 30.2 1023 10 16.0934 0 0
11:53 pm 23:53 Clear 38 3.3 20 -6.7 48 48 NNW 3 6 30.21 1023 10 16.0934 0 0

Powered by AerisWeather